When you browse on this site, cookies collect data to enhance your experience and personalize the content and advertising you see.
Visit our Privacy Policy to learn more. By continuing to use the site, you agree to this use of cookies and data.
  • In Deutschland
  • Länderverzeichnis
  • Für 7 Tage
  • Wassertemperatur
  • Satellitenkarten
  • Wetterkarte
  • Widgets
  • user-avatar
    Anmelden

    Stündliche Wetter Mykhailivka

    Heute, 18 Februar, Montag

    Zeit Temperatur Niederschläge Wind Luftdruck Luftfeuchtigkeit
    00:00 +5°C° 0 mm 5 m/S 761 mmHg 76%
    01:00 +3°C° 0 mm 5 m/S 761 mmHg 79%
    02:00 +4°C° 0 mm 4 m/S 761 mmHg 82%
    03:00 +4°C° 0 mm 4 m/S 761 mmHg 84%
    04:00 +3°C° 0 mm 4 m/S 761 mmHg 86%
    05:00 +2°C° 0 mm 5 m/S 761 mmHg 88%
    06:00 +2°C° 0 mm 5 m/S 761 mmHg 87%
    07:00 +2°C° 0 mm 5 m/S 762 mmHg 87%
    08:00 +2°C° 0 mm 5 m/S 762 mmHg 84%
    09:00 +3°C° 0 mm 5 m/S 762 mmHg 75%
    10:00 +3°C° 0 mm 5 m/S 763 mmHg 66%
    11:00 +5°C° 0 mm 5 m/S 763 mmHg 57%
    12:00 +6°C° 0 mm 5 m/S 763 mmHg 51%
    13:00 +7°C° 0 mm 5 m/S 763 mmHg 46%
    14:00 +7°C° 0 mm 5 m/S 763 mmHg 40%
    15:00 +7°C° 0 mm 5 m/S 763 mmHg 41%
    16:00 +6°C° 0 mm 4 m/S 763 mmHg 42%
    17:00 +6°C° 0 mm 4 m/S 763 mmHg 43%
    18:00 +5°C° 0 mm 4 m/S 764 mmHg 47%
    19:00 +4°C° 0 mm 4 m/S 764 mmHg 51%
    20:00 +1°C° 0 mm 4 m/S 765 mmHg 55%
    21:00 +1°C° 0 mm 4 m/S 765 mmHg 60%
    22:00 +1°C° 0 mm 3 m/S 765 mmHg 65%
    23:00 0°C° 0 mm 3 m/S 766 mmHg 69%

    Morgen, 19 Februar, Dienstag

    Zeit Temperatur Niederschläge Wind Luftdruck Luftfeuchtigkeit
    00:00 0°C° 0 mm 3 m/S 766 mmHg 73%
    01:00 -1°C° 0 mm 3 m/S 766 mmHg 77%
    02:00 -1°C° 0 mm 3 m/S 766 mmHg 80%
    03:00 -1°C° 0 mm 3 m/S 766 mmHg 81%
    04:00 -2°C° 0 mm 3 m/S 767 mmHg 83%
    05:00 -2°C° 0 mm 3 m/S 767 mmHg 84%
    06:00 -2°C° 0 mm 3 m/S 767 mmHg 82%
    07:00 -1°C° 0 mm 3 m/S 767 mmHg 80%
    08:00 -1°C° 0 mm 3 m/S 767 mmHg 78%
    09:00 0°C° 0 mm 3 m/S 767 mmHg 71%
    10:00 +1°C° 0 mm 3 m/S 767 mmHg 64%
    11:00 +2°C° 0 mm 3 m/S 767 mmHg 57%
    12:00 +3°C° 0 mm 3 m/S 767 mmHg 54%
    13:00 +3°C° 0 mm 3 m/S 767 mmHg 50%
    14:00 +4°C° 0 mm 3 m/S 767 mmHg 47%
    15:00 +3°C° 0 mm 3 m/S 766 mmHg 50%
    16:00 +3°C° 0 mm 3 m/S 766 mmHg 52%
    17:00 +3°C° 0 mm 3 m/S 766 mmHg 54%
    18:00 +1°C° 0 mm 4 m/S 766 mmHg 58%
    19:00 0°C° 0 mm 4 m/S 766 mmHg 63%
    20:00 -1°C° 0 mm 4 m/S 766 mmHg 67%
    21:00 -1°C° 0 mm 4 m/S 766 mmHg 70%
    22:00 -1°C° 0 mm 4 m/S 766 mmHg 73%
    23:00 0°C° 0 mm 3 m/S 765 mmHg 77%

    übermorgen, 20 Februar, Mittwoch

    Zeit Temperatur Niederschläge Wind Luftdruck Luftfeuchtigkeit
    00:00 0°C° 0 mm 3 m/S 765 mmHg 80%
    01:00 0°C° 0 mm 3 m/S 765 mmHg 83%
    02:00 +1°C° 0 mm 3 m/S 764 mmHg 86%
    03:00 0°C° 0 mm 4 m/S 764 mmHg 86%
    04:00 +1°C° 0 mm 4 m/S 763 mmHg 86%
    05:00 +1°C° 0 mm 4 m/S 763 mmHg 85%
    06:00 +3°C° 0 mm 4 m/S 763 mmHg 84%
    07:00 +3°C° 0 mm 4 m/S 763 mmHg 83%
    08:00 +2°C° 0 mm 5 m/S 763 mmHg 81%
    09:00 +3°C° 0 mm 5 m/S 762 mmHg 78%
    10:00 +4°C° 0 mm 6 m/S 762 mmHg 75%
    11:00 +5°C° 0 mm 6 m/S 762 mmHg 71%
    12:00 +5°C° 0 mm 6 m/S 761 mmHg 70%
    13:00 +7°C° 0 mm 6 m/S 761 mmHg 69%
    14:00 +6°C° 0 mm 7 m/S 761 mmHg 68%
    15:00 +7°C° 0 mm 6 m/S 760 mmHg 72%
    16:00 +5°C° 0 mm 6 m/S 760 mmHg 76%
    17:00 +5°C° 0 mm 6 m/S 760 mmHg 79%
    18:00 +6°C° 0 mm 5 m/S 760 mmHg 81%
    19:00 +6°C° 0 mm 5 m/S 760 mmHg 83%
    20:00 +5°C° 0 mm 4 m/S 760 mmHg 85%
    21:00 +5°C° 0 mm 4 m/S 761 mmHg 87%
    22:00 +5°C° 0 mm 3 m/S 761 mmHg 89%
    23:00 +5°C° 0 mm 3 m/S 761 mmHg 91%

    21 Februar, Donnerstag

    Zeit Temperatur Niederschläge Wind Luftdruck Luftfeuchtigkeit
    00:00 +4°C° 0 mm 3 m/S 761 mmHg 90%
    01:00 +4°C° 0 mm 3 m/S 761 mmHg 89%
    02:00 +4°C° 0 mm 4 m/S 761 mmHg 87%
    03:00 +3°C° 0 mm 4 m/S 761 mmHg 87%
    04:00 +3°C° 0 mm 4 m/S 761 mmHg 88%
    05:00 +1°C° 0 mm 4 m/S 761 mmHg 88%
    06:00 +1°C° 0 mm 4 m/S 762 mmHg 85%
    07:00 +1°C° 0 mm 4 m/S 762 mmHg 82%
    08:00 +1°C° 0 mm 4 m/S 762 mmHg 80%
    09:00 +3°C° 0 mm 5 m/S 763 mmHg 71%
    10:00 +5°C° 0 mm 5 m/S 763 mmHg 63%
    11:00 +5°C° 0 mm 6 m/S 763 mmHg 55%
    12:00 +7°C° 0 mm 6 m/S 763 mmHg 52%
    13:00 +7°C° 0 mm 6 m/S 763 mmHg 49%
    14:00 +8°C° 0 mm 7 m/S 762 mmHg 45%
    15:00 +6°C° 0 mm 7 m/S 762 mmHg 47%
    16:00 +7°C° 0 mm 6 m/S 762 mmHg 48%
    17:00 +5°C° 0 mm 6 m/S 762 mmHg 49%
    18:00 +6°C° 0 mm 5 m/S 763 mmHg 52%
    19:00 +5°C° 0 mm 5 m/S 763 mmHg 55%
    20:00 +5°C° 0 mm 4 m/S 763 mmHg 57%
    21:00 +5°C° 0 mm 4 m/S 763 mmHg 60%
    22:00 +4°C° 0 mm 4 m/S 763 mmHg 63%
    23:00 +4°C° 0 mm 4 m/S 763 mmHg 66%

    22 Februar, Freitag

    Zeit Temperatur Niederschläge Wind Luftdruck Luftfeuchtigkeit
    00:00 +4°C° 0.1 mm 4 m/S 763 mmHg 67%
    01:00 +5°C° 0.1 mm 4 m/S 762 mmHg 68%
    02:00 +5°C° 0.1 mm 4 m/S 762 mmHg 70%
    03:00 +5°C° 0 mm 4 m/S 761 mmHg 71%
    04:00 +4°C° 0 mm 4 m/S 761 mmHg 72%
    05:00 +4°C° 0 mm 4 m/S 761 mmHg 72%
    06:00 +4°C° 0.1 mm 3 m/S 760 mmHg 72%
    07:00 +4°C° 0.1 mm 3 m/S 760 mmHg 72%
    08:00 +6°C° 0.1 mm 2 m/S 760 mmHg 72%
    09:00 +6°C° 0.3 mm 2 m/S 760 mmHg 72%
    10:00 +6°C° 0.3 mm 2 m/S 760 mmHg 71%
    11:00 +7°C° 0.3 mm 2 m/S 760 mmHg 71%
    12:00 +5°C° 0.8 mm 3 m/S 760 mmHg 74%
    13:00 +4°C° 0.8 mm 4 m/S 759 mmHg 78%
    14:00 +3°C° 0.8 mm 5 m/S 759 mmHg 81%
    15:00 0°C° 0.8 mm 7 m/S 760 mmHg 83%
    16:00 -3°C° 0.8 mm 10 m/S 760 mmHg 84%
    17:00 -6°C° 0.8 mm 12 m/S 761 mmHg 85%
    18:00 -7°C° 0.6 mm 12 m/S 762 mmHg 83%
    19:00 -8°C° 0.6 mm 12 m/S 763 mmHg 81%
    20:00 -8°C° 0.6 mm 12 m/S 764 mmHg 78%
    21:00 -9°C° 0.1 mm 11 m/S 765 mmHg 74%
    22:00 -11°C° 0.1 mm 11 m/S 766 mmHg 69%
    23:00 -11°C° 0.1 mm 11 m/S 767 mmHg 65%

    23 Februar, Samstag

    Zeit Temperatur Niederschläge Wind Luftdruck Luftfeuchtigkeit
    00:00 -11°C° 0 mm 11 m/S 767 mmHg 65%
    01:00 -12°C° 0 mm 11 m/S 768 mmHg 65%
    02:00 -12°C° 0 mm 11 m/S 769 mmHg 64%
    03:00 -12°C° 0 mm 10 m/S 769 mmHg 64%
    04:00 -12°C° 0 mm 10 m/S 769 mmHg 64%
    05:00 -11°C° 0 mm 9 m/S 769 mmHg 64%
    06:00 -11°C° 0 mm 9 m/S 770 mmHg 65%
    07:00 -11°C° 0 mm 9 m/S 770 mmHg 65%
    08:00 -10°C° 0 mm 9 m/S 771 mmHg 65%
    09:00 -10°C° 0 mm 9 m/S 771 mmHg 63%
    10:00 -8°C° 0 mm 8 m/S 771 mmHg 60%
    11:00 -7°C° 0 mm 8 m/S 771 mmHg 58%
    12:00 -7°C° 0 mm 8 m/S 771 mmHg 55%
    13:00 -6°C° 0 mm 7 m/S 770 mmHg 53%
    14:00 -6°C° 0 mm 7 m/S 770 mmHg 51%
    15:00 -5°C° 0 mm 6 m/S 770 mmHg 51%
    16:00 -6°C° 0 mm 6 m/S 770 mmHg 52%
    17:00 -6°C° 0 mm 5 m/S 770 mmHg 53%
    18:00 -6°C° 0 mm 5 m/S 770 mmHg 55%
    19:00 -7°C° 0 mm 4 m/S 770 mmHg 57%
    20:00 -7°C° 0 mm 4 m/S 770 mmHg 59%
    21:00 -6°C° 0 mm 3 m/S 770 mmHg 59%
    22:00 -7°C° 0 mm 3 m/S 770 mmHg 59%
    23:00 -6°C° 0 mm 2 m/S 770 mmHg 59%
    Mehr zeigen